| time (UTC) | temp C | wind direction | speed KPH | gust KPH | rain 1hr cm | rain 24hr cm | rain mn cm | humidity % | barometer mb |
| 20260506191721 | 10 | 216 | 1.6 | 3.2 | 0.00 | 0.00 | 0.51 | 91 | 1009.3 |
| 20260506190554 | 10 | 198 | 3.2 | 4.8 | 0.00 | 0.00 | 0.51 | 91 | 1009.2 |
| 20260506185427 | 10 | 168 | 3.2 | 4.8 | 0.00 | 0.00 | 0.51 | 91 | 1009.1 |
| 20260506184300 | 10 | 204 | 3.2 | 3.2 | 0.00 | 0.00 | 0.51 | 91 | 1009.0 |
| 20260506183043 | 10 | 192 | 0.0 | 4.8 | 0.00 | 0.00 | 0.51 | 91 | 1008.8 |
| 20260506181902 | 11 | 210 | 3.2 | 3.2 | 0.00 | 0.00 | 0.51 | 90 | 1008.6 |
| 20260506180735 | 11 | 162 | 3.2 | 3.2 | 0.00 | 0.00 | 0.51 | 91 | 1008.6 |
| 20260506175608 | 11 | 168 | 3.2 | 3.2 | 0.00 | 0.00 | 0.51 | 92 | 1008.6 |
| 20260506174442 | 11 | 240 | 0.0 | 3.2 | 0.00 | 0.00 | 0.51 | 92 | 1008.4 |
| 20260506173313 | 11 | 161 | 3.2 | 3.2 | 0.00 | 0.00 | 0.51 | 87 | 1008.3 |
| 20260506172146 | 11 | 210 | 1.6 | 1.6 | 0.00 | 0.00 | 0.51 | 88 | 1008.0 |
| 20260506171031 | 11 | 270 | 0.0 | 1.6 | 0.00 | 0.00 | 0.51 | 89 | 1008.0 |
| 20260506165850 | 11 | 120 | 0.0 | 3.2 | 0.00 | 0.00 | 0.51 | 88 | 1007.9 |
| 20260506164723 | 11 | 192 | 0.0 | 3.2 | 0.00 | 0.00 | 0.51 | 86 | 1007.8 |
| 20260506163554 | 11 | 216 | 1.6 | 4.8 | 0.00 | 0.00 | 0.51 | 86 | 1007.8 |
| 20260506162426 | 11 | 240 | 3.2 | 3.2 | 0.00 | 0.00 | 0.51 | 85 | 1007.7 |
| 20260506161300 | 11 | 204 | 0.0 | 1.6 | 0.00 | 0.00 | 0.51 | 87 | 1007.7 |
| 20260506160133 | 11 | 186 | 0.0 | 4.8 | 0.00 | 0.00 | 0.51 | 87 | 1007.8 |
| 20260506155018 | 11 | 240 | 0.0 | 4.8 | 0.00 | 0.00 | 0.51 | 87 | 1007.9 |
| 20260506153837 | 11 | 258 | 1.6 | 3.2 | 0.00 | 0.00 | 0.51 | 86 | 1007.9 |
| 20260506152709 | 11 | 240 | 0.0 | 3.2 | 0.00 | 0.00 | 0.51 | 86 | 1007.8 |
| 20260506151541 | 11 | 198 | 3.2 | 3.2 | 0.00 | 0.00 | 0.51 | 90 | 1007.8 |
| 20260506150413 | 11 | 204 | 0.0 | 3.2 | 0.00 | 0.00 | 0.51 | 89 | 1007.8 |
| 20260506145158 | 11 | 204 | 0.0 | 3.2 | 0.03 | 0.00 | 0.51 | 90 | 1007.8 |
| 20260506144018 | 11 | 180 | 0.0 | 6.4 | 0.03 | 0.00 | 0.51 | 89 | 1007.8 |
| 20260506142850 | 11 | 198 | 0.0 | 3.2 | 0.03 | 0.00 | 0.51 | 90 | 1007.7 |
| 20260506141721 | 11 | 228 | 0.0 | 4.8 | 0.05 | 0.00 | 0.51 | 89 | 1007.8 |
| 20260506140554 | 11 | 234 | 0.0 | 8.0 | 0.13 | 0.00 | 0.51 | 91 | 1007.8 |
| 20260506135337 | 11 | 234 | 3.2 | 3.2 | 0.15 | 0.00 | 0.48 | 88 | 1007.7 |
| 20260506134155 | 11 | 222 | 3.2 | 3.2 | 0.20 | 0.00 | 0.48 | 90 | 1007.6 |
| 20260506133028 | 11 | 180 | 1.6 | 4.8 | 0.23 | 0.00 | 0.48 | 92 | 1007.7 |
| 20260506131900 | 11 | 252 | 0.0 | 4.8 | 0.28 | 0.00 | 0.46 | 91 | 1007.7 |
| 20260506130732 | 11 | 228 | 3.2 | 6.4 | 0.25 | 0.00 | 0.38 | 89 | 1007.5 |
| 20260506125605 | 11 | 252 | 3.2 | 9.7 | 0.25 | 0.00 | 0.33 | 88 | 1007.4 |
| 20260506124437 | 12 | 240 | 4.8 | 6.4 | 0.20 | 0.00 | 0.28 | 88 | 1007.2 |
| 20260506123322 | 12 | 156 | 4.8 | 8.0 | 0.15 | 0.00 | 0.25 | 90 | 1006.9 |
| 20260506122141 | 12 | 150 | 3.2 | 8.0 | 0.13 | 0.00 | 0.20 | 89 | 1006.7 |
| 20260506121015 | 12 | 228 | 3.2 | 6.4 | 0.05 | 0.00 | 0.13 | 92 | 1006.5 |
| 20260506115847 | 12 | 204 | 1.6 | 4.8 | 0.00 | 0.00 | 0.08 | 90 | 1006.3 |
| 20260506114720 | 13 | 180 | 4.8 | 6.4 | 0.00 | 0.00 | 0.08 | 87 | 1006.0 |
| 20260506113503 | 13 | 222 | 3.2 | 11.3 | 0.00 | 0.00 | 0.08 | 85 | 1005.9 |
| 20260506112323 | 13 | 288 | 1.6 | 6.4 | 0.00 | 0.00 | 0.08 | 82 | 1005.8 |
| 20260506111154 | 13 | 252 | 0.0 | 8.0 | 0.03 | 0.00 | 0.08 | 81 | 1005.8 |
| 20260506110028 | 14 | 234 | 4.8 | 6.4 | 0.05 | 0.00 | 0.08 | 81 | 1006.1 |
| 20260506104900 | 13 | 222 | 4.8 | 4.8 | 0.05 | 0.00 | 0.08 | 84 | 1005.9 |
| 20260506103644 | 13 | 240 | 4.8 | 4.8 | 0.05 | 0.00 | 0.08 | 84 | 1006.0 |
| 20260506102502 | 13 | 276 | 0.0 | 1.6 | 0.05 | 0.00 | 0.08 | 86 | 1006.0 |
| 20260506101337 | 13 | 228 | 0.0 | 4.8 | 0.05 | 0.00 | 0.08 | 88 | 1006.0 |
| 20260506100209 | 12 | 240 | 1.6 | 3.2 | 0.00 | 0.00 | 0.03 | 86 | 1006.0 |
| 20260506095042 | 12 | 222 | 3.2 | 3.2 | 0.00 | 0.00 | 0.03 | 85 | 1005.8 |
| 20260506093914 | 13 | 108 | 0.0 | 3.2 | 0.00 | 0.00 | 0.03 | 82 | 1005.7 |
| 20260506092748 | 13 | 186 | 3.2 | 3.2 | 0.00 | 0.00 | 0.03 | 82 | 1005.7 |
| 20260506091633 | 13 | 186 | 0.0 | 1.6 | 0.00 | 0.00 | 0.03 | 85 | 1005.6 |
| 20260506090451 | 13 | 204 | 0.0 | 4.8 | 0.00 | 0.00 | 0.03 | 83 | 1005.5 |
| 20260506085325 | 13 | 222 | 0.0 | 0.0 | 0.00 | 0.00 | 0.03 | 83 | 1005.5 |
| 20260506084157 | 13 | 228 | 0.0 | 1.6 | 0.00 | 0.00 | 0.03 | 82 | 1005.5 |
| 20260506083030 | 12 | 210 | 0.0 | 0.0 | 0.00 | 0.00 | 0.03 | 81 | 1005.5 |
| 20260506081815 | 13 | 204 | 0.0 | 0.0 | 0.00 | 0.00 | 0.03 | 84 | 1005.5 |
| 20260506080635 | 13 | 210 | 0.0 | 0.0 | 0.00 | 0.00 | 0.03 | 82 | 1005.5 |
| 20260506073213 | 12 | 24 | 0.0 | 0.0 | 0.00 | 0.00 | 0.03 | 88 | 1005.6 |
| 20260506072046 | 11 | 240 | 0.0 | 0.0 | 0.00 | 0.00 | 0.03 | 88 | 1005.7 |
| 20260506070919 | 11 | 36 | 0.0 | 1.6 | 0.00 | 0.00 | 0.03 | 89 | 1005.7 |
| 20260506062330 | 9 | 336 | 0.0 | 0.0 | 0.00 | 0.00 | 0.03 | 96 | 1005.9 |
| 20260506061203 | 8 | 210 | 0.0 | 0.0 | 0.00 | 0.00 | 0.03 | 98 | 1005.8 |
| 20260506050318 | 7 | 54 | 0.0 | 0.0 | 0.00 | 0.00 | 0.03 | 99 | 1006.1 |
| 20260506043933 | 7 | 246 | 0.0 | 0.0 | 0.00 | 0.00 | 0.03 | 99 | 1006.0 |
| 20260506042752 | 7 | 198 | 0.0 | 1.6 | 0.00 | 0.00 | 0.03 | 99 | 1005.9 |
| 20260506041624 | 7 | 318 | 0.0 | 0.0 | 0.03 | 0.00 | 0.03 | 99 | 1006.1 |
| 20260506040456 | 7 | 252 | 0.0 | 0.0 | 0.03 | 0.00 | 0.03 | 99 | 1006.2 |
| 20260506035329 | 7 | 240 | 0.0 | 1.6 | 0.03 | 0.00 | 0.03 | 99 | 1006.3 |
| 20260506034113 | 7 | 210 | 0.0 | 0.0 | 0.03 | 0.00 | 0.03 | 99 | 1006.3 |
| 20260506032930 | 7 | 192 | 0.0 | 0.0 | 0.03 | 0.00 | 0.03 | 99 | 1006.6 |
| 20260506031803 | 7 | 204 | 0.0 | 0.0 | 0.00 | 0.00 | 0.00 | 99 | 1006.6 |
| 20260506030637 | 7 | 204 | 0.0 | 0.0 | 0.00 | 0.00 | 0.00 | 99 | 1006.6 |
| 20260506025509 | 7 | 306 | 0.0 | 0.0 | 0.00 | 0.00 | 0.00 | 99 | 1006.6 |
| 20260506024253 | 7 | 240 | 0.0 | 0.0 | 0.00 | 0.00 | 0.00 | 99 | 1006.7 |
| 20260506023059 | 7 | 54 | 0.0 | 1.6 | 0.00 | 0.00 | 0.00 | 99 | 1006.7 |
| 20260506021931 | 8 | 222 | 0.0 | 0.0 | 0.00 | 0.00 | 0.00 | 99 | 1006.6 |
| 20260506020803 | 8 | 252 | 0.0 | 0.0 | 0.00 | 0.00 | 0.00 | 99 | 1006.8 |
| 20260506015635 | 8 | 234 | 0.0 | 0.0 | 0.00 | 0.00 | 0.00 | 99 | 1006.9 |
| 20260506014508 | 8 | 276 | 0.0 | 0.0 | 0.00 | 0.00 | 0.00 | 99 | 1007.1 |
| 20260506013342 | 8 | 216 | 0.0 | 0.0 | 0.00 | 0.00 | 0.00 | 99 | 1007.2 |
| 20260506012227 | 8 | 156 | 0.0 | 0.0 | 0.00 | 0.00 | 0.00 | 99 | 1007.2 |
| 20260506011046 | 8 | 198 | 0.0 | 0.0 | 0.00 | 0.00 | 0.00 | 99 | 1007.3 |
| 20260506005918 | 8 | 216 | 0.0 | 0.0 | 0.00 | 0.00 | 0.00 | 99 | 1007.4 |
| 20260506004750 | 8 | 210 | 0.0 | 0.0 | 0.00 | 0.00 | 0.00 | 99 | 1007.6 |
| 20260506003622 | 8 | 216 | 0.0 | 0.0 | 0.00 | 0.00 | 0.00 | 99 | 1007.7 |
| 20260506002454 | 8 | 222 | 0.0 | 0.0 | 0.00 | 0.00 | 0.00 | 99 | 1007.6 |
| 20260506001326 | 8 | 174 | 0.0 | 0.0 | 0.00 | 0.00 | 0.00 | 99 | 1007.8 |
| 20260506000212 | 8 | 192 | 0.0 | 0.0 | 0.00 | 0.00 | 0.00 | 99 | 1007.6 |
| 20260505235030 | 8 | 192 | 0.0 | 0.0 | 0.00 | 0.00 | 0.00 | 99 | 1007.7 |
| 20260505233903 | 8 | 252 | 0.0 | 0.0 | 0.00 | 0.00 | 0.00 | 98 | 1007.9 |
| 20260505232735 | 8 | 198 | 0.0 | 0.0 | 0.00 | 0.00 | 0.00 | 99 | 1008.1 |
| 20260505231603 | 8 | 234 | 0.0 | 1.6 | 0.00 | 0.00 | 0.00 | 99 | 1008.1 |
| 20260505223939 | 8 | 354 | 0.0 | 1.6 | 0.00 | 0.00 | 0.08 | 99 | 1008.3 |
| 20260505222812 | 8 | 210 | 1.6 | 1.6 | 0.00 | 0.00 | 0.08 | 98 | 1008.3 |
| 20260505221556 | 8 | 240 | 0.0 | 0.0 | 0.00 | 0.00 | 0.08 | 98 | 1008.4 |
| 20260505220415 | 9 | 210 | 0.0 | 0.0 | 0.00 | 0.00 | 0.08 | 98 | 1008.3 |
| 20260505215246 | 9 | 234 | 0.0 | 0.0 | 0.00 | 0.00 | 0.08 | 98 | 1008.4 |
| 20260505214119 | 9 | 168 | 0.0 | 1.6 | 0.00 | 0.00 | 0.08 | 97 | 1008.5 |
| 20260505212951 | 9 | 150 | 0.0 | 0.0 | 0.00 | 0.00 | 0.08 | 98 | 1008.4 |
| 20260505211735 | 9 | 6 | 0.0 | 0.0 | 0.00 | 0.00 | 0.08 | 98 | 1008.6 |
| 20260505210554 | 9 | 270 | 0.0 | 0.0 | 0.00 | 0.00 | 0.08 | 96 | 1008.6 |
| 20260505205428 | 10 | 198 | 0.0 | 0.0 | 0.00 | 0.00 | 0.08 | 96 | 1008.6 |
| 20260505204301 | 10 | 354 | 0.0 | 0.0 | 0.00 | 0.00 | 0.08 | 96 | 1008.6 |
| 20260505203133 | 10 | 180 | 0.0 | 0.0 | 0.00 | 0.00 | 0.08 | 97 | 1008.6 |
| 20260505202005 | 10 | 246 | 0.0 | 0.0 | 0.00 | 0.00 | 0.08 | 97 | 1008.5 |
| 20260505200838 | 10 | 18 | 0.0 | 0.0 | 0.00 | 0.00 | 0.08 | 97 | 1008.3 |
| 20260505195723 | 10 | 216 | 0.0 | 0.0 | 0.00 | 0.00 | 0.08 | 97 | 1008.2 |
| 20260505194541 | 10 | 258 | 0.0 | 0.0 | 0.00 | 0.00 | 0.08 | 96 | 1008.0 |
| 20260505193414 | 11 | 204 | 0.0 | 0.0 | 0.00 | 0.00 | 0.08 | 95 | 1007.9 |
| 20260505192245 | 11 | 252 | 0.0 | 0.0 | 0.00 | 0.00 | 0.08 | 94 | 1007.8 |